SKYSAT-C5

Last updated on Mon Sep 15 2025 00:02:31 GMT+0000 (Coordinated Universal Time)

1 41772U 16058C 25256.91188814 .00008079 00000+0 23225-3 0 9991 2 41772 97.0913 304.0598 0004245 77.8595 282.3125 15.36047926501379
UTC large
Height (km)
Speed (km/s)
/
Latitude / Longitude
Inclination (degrees)
Orbital Period (minutes)
Azimuth
Elevation
Range (km)
Doppler Factor

Next 0 passes for location: London (51.5072 / 0.1276)

Sorry there are no passes over London.